Location: Camp Creek
(33.9000°N, 111.8167°W)
Time: 00:52:53
(UTC-07:00)

DELTA 2 R/B (1) - Visible Passes

Search period start: 23 July 2014 00:00
Search period end: 02 August 2014 00:00
Orbit: 790 x 805 km, 39.6° (Epoch: 22 July)

Date Brightness Start Highest point End Pass type
(mag) Time Alt. Az. Time Alt. Az. Time Alt. Az.
23 Jul 4.9 21:13:37 10° W 21:18:13 27° SW 21:20:24 21° S visible
24 Jul 4.9 20:42:55 10° W 20:47:41 29° SW 20:51:26 15° SSE visible
25 Jul 4.8 20:12:14 10° W 20:17:09 32° SW 20:22:01 10° SSE visible
